AirNav   Air Wisconsin pilot careers
 
 1495 users online  

27TE Sierra Providence Hospital Heliport
El Paso, Texas, USA


FAA INFORMATION EFFECTIVE 07 DECEMBER 2017

Location

FAA Identifier: 27TE
Lat/Long: 31-47-28.0200N / 106-15-48.9000W
31-47.467000N / 106-15.815000W
31.7911167 / -106.2635833
(estimated)
Elevation: 4002 ft. / 1220 m (estimated)
From city: 22 miles NE of EL PASO, TX
Time zone: UTC -7 (UTC -6 during Daylight Saving Time)
Zip code: 79936

Heliport Operations

Heliport use: Private use, MEDICAL USE.
Activation date: 06/2007
Control tower: no
ARTCC: ALBUQUERQUE CENTER
FSS: ALBUQUERQUE FLIGHT SERVICE STATION
Attendance: UNATNDD
Segmented circle: no
Lights: SS-SR

Heliport Communications

WX ASOS at ELP (6 nm W): PHONE 915-774-9497

Nearby radio navigation aids

VOR radial/distance  VOR name  Freq  Var
ELPr136/1.8EL PASO VORTAC115.2012E
EWMr165/9.6NEWMAN VORTAC112.4012E
CJSr031/12.5CIUDAD JUAREZ VOR/DME116.7011E

 
NDB name  Hdg/Dist  Freq  Var  ID
VALTR138/5.024208EEL . .-..

Heliport Services

Runway Information

Helipad H1

Dimensions: 40 x 40 ft. / 12 x 12 m
Surface: concrete
Runway edge lights: PERI
Traffic pattern: leftleft

Heliport Ownership and Management from official FAA records

Ownership: Privately-owned
Owner: SIERRA PROVIDENCE EASTSIDE HOSPITAL
13737 NOEL RD
DALLAS, TX 75240
Phone 915-832-2000
Manager: RUBEN RODRIQUEZ
3280 JOE BATTLE BLVD
EL PASO, TX 79938
Phone (915) 832-2910

Additional Remarks

A52-H1 60 FT BLDG 80 FT SW; 34 FT HOUSES 260 FT E; 15 FT LIGHT POLE 175 FT E & 15 FT LIGHT POLE 500 FT W OF LNDG AREA.

Instrument Procedures

There are no published instrument procedures at 27TE.

Some nearby airports with instrument procedures:

KELP - El Paso International Airport (6 nm W)
KBIF - Biggs Army Airfield (Fort Bliss) (7 nm NW)
KDNA - Dona Ana County International Jetport Airport (23 nm W)
KLRU - Las Cruces International Airport (45 nm NW)
KHMN - Holloman Air Force Base (64 nm N)
 
Loc | Ops | Rwys | IFR | FBO | Links
Com | Nav | Svcs | Stats | Notes

Chandler Aviation LLC
 
Aerial photo
No photo
 
Sectional chart

 
Airport distance calculator
Flying to Sierra Providence Hospital Heliport? Find the distance to fly.

From to 27TE

Sunrise and sunset
Times for 13-Dec-2017
 Local
(UTC-7)
 Zulu
(UTC)
Morning civil twilight06:3013:30
Sunrise06:5713:57
Sunset17:0100:01
Evening civil twilight17:2800:28

Current date and time
Zulu (UTC)  13-Dec-2017 16:07:05
Local (UTC-7)  13-Dec-2017 09:07:05
 
METAR
KELP 
6nm W 
131551Z 02007KT 10SM FEW085 04/M12 A3019 RMK AO2 SLP208 T00391117
KBIF 
7nm NW 
131458Z AUTO 35003KT 10SM CLR 00/M12 A3018 RMK AO2 SLP213 T00041123 53006 $
MMCS 
13nm SW 
131546Z 34006KT 10SM SKC 05/M11 A3021
TAF
KELP 
6nm W 
131120Z 1312/1412 03005KT P6SM SKC FM131800 26007KT P6SM SKC FM140200 VRB05KT P6SM SCT200
KBIF 
7nm NW 
131407Z 1314/1420 VRB06KT 9999 FEW200 QNH3010INS BECMG 1320/1321 29009KT 9999 FEW180 QNH3005INS BECMG 1403/1404 VRB06KT 9999 FEW200 QNH2999INS BECMG 1414/1415 20009KT 9999 FEW080 QNH2998INS BECMG 1417/1418 26009KT 9999 FEW080 QNH2997INS TX14/1322Z TNM04/1314Z
MMCS 
13nm SW 
130504Z 1306/1406 00000KT P6SM SKC FM131800 23010KT P6SM SKC FM140400 23005KT 6SM HZ SKC
NOTAMs
Click for the latest NOTAMs
NOTAMs are issued by the DoD/FAA and will open in a separate window not controlled by AirNav.

 

 
 

Would you like to see your business listed on this page?

 If your business provides an interesting product or service to pilots, flight crews, aircraft, or users of the Sierra Providence Hospital Heliport, you should consider listing it here.  To start the listing process, click on the button below
 
Add a business
 

Other Pages about Sierra Providence Hospital Heliport

Update a link
 
Copyright © AirNav, LLC. All rights reserved. Privacy Policy  Contact